Temperature
9 9 10 10 10 10 10 10 10 10 10 10 10 10 10 10 10 10 10 10 10 10 10 10 10 10 10 10 10 10 11 11 11 11 11 11 11 11 11 11 11 11 11
9 9 9 9 9 9 9 9 9 9 9 9 9 9 9 9 9 9 10 10 10 10 10 10 10 10 10 10 10 10 10 10 10 10 10 10 10 11 11 11 11 11 11
8 8 8 8 9 9 9 9 9 9 9 9 9 9 9 9 9 9 9 9 9 9 9 9 10 10 9 10 9 10 10 10 10 10 10 10 10 10 10 10 11 11 11
7 7 8 8 8 8 8 8 8 8 8 8 8 8 8 8 8 9 9 9 9 9 9 9 9 9 9 9 9 9 9 9 9 9 10 10 10 10 10 10 10 10 10
7 7 7 7 7 7 7 7 7 7 8 8 8 8 8 8 8 8 8 8 8 9 9 9 9 9 9 9 9 9 9 9 9 9 9 9 9 9 9 10 10 10 10
6 6 6 7 6 6 7 7 7 7 7 7 7 7 7 8 8 8 8 8 8 8 8 8 8 8 8 8 8 8 8 8 8 9 9 9 9 9 9 9 9 9 9
6 6 6 6 6 6 6 6 6 6 6 6 6 7 7 7 7 7 7 7 7 8 8 8 8 8 8 8 8 8 8 8 8 8 8 8 8 9 9 9 9 9 9
5 5 5 5 5 5 5 5 5 5 5 5 5 5 5 6 6 7 7 7 7 7 7 7 7 7 7 7 7 7 8 8 8 8 8 8 8 8 8 8 8 9 9
5 5 5 5 5 5 5 5 5 5 5 5 5 5 5 5 5 6 6 6 6 6 7 7 7 7 7 7 7 7 7 7 7 7 7 8 8 8 8 8 8 8 8
4 4 4 4 4 4 4 4 4 4 4 4 4 4 4 4 4 4 5 5 6 6 6 6 6 7 6 6 7 7 7 7 7 7 7 7 7 7 7 7 7 8 8
3 3 3 3 3 3 3 3 3 3 3 3 3 3 4 4 4 3 3 4 5 5 5 6 6 6 6 6 6 6 6 6 6 6 6 6 7 7 7 7 7 7 7
3 3 3 3 3 3 3 3 3 3 3 3 3 3 3 3 3 3 3 3 4 4 5 5 5 5 5 5 5 5 6 6 6 6 6 6 6 6 6 6 7 7 7
2 3 2 2 2 2 2 2 2 2 2 2 2 2 2 2 2 2 2 2 2 3 4 4 4 5 5 5 5 5 5 5 5 5 5 5 5 6 6 6 6 6 6
2 2 2 2 2 2 2 2 2 2 2 2 2 2 2 2 2 2 2 2 1 2 2 3 3 4 4 4 4 4 4 4 5 5 5 5 5 5 5 5 5 6 6
1 1 1 1 1 1 1 1 1 1 1 2 1 1 1 1 1 1 1 1 1 1 1 2 2 3 3 3 3 3 4 4 4 4 4 4 4 4 5 5 5 5 5
1 1 1 1 1 1 1 1 1 1 1 1 1 1 1 1 1 1 1 1 0 0 0 1 1 2 2 2 3 3 3 3 3 3 4 4 4 4 4 4 4 5 5
0 0 0 0 0 0 0 0 0 1 0 1 0 0 0 0 0 0 0 0 -0 -0 -0 0 1 1 1 1 2 2 2 2 2 3 3 3 3 3 3 4 4 4 4
-0 -0 -0 -0 -0 -0 -0 -0 -0 -0 -0 -0 -0 -0 -0 -0 -0 -0 -1 -1 -1 -1 -1 -1 -0 0 0 1 1 1 1 1 2 2 2 2 2 2 3 3 3 3 4
-1 -1 -1 -1 -1 -1 -1 -1 -1 -1 -1 -1 -1 -1 -1 -1 -1 -1 -1 -1 -1 -1 -1 -1 -1 -1 -0 -0 -0 0 0 1 1 1 1 1 2 2 2 2 2 3 3
-2 -1 -1 -1 -2 -2 -2 -2 -2 -2 -1 -1 -1 -1 -1 -2 -2 -2 -2 -2 -2 -2 -2 -2 -2 -1 -1 -1 -1 -1 -0 -0 0 0 0 1 1 1 1 1 2 2 2
-2 -2 -2 -2 -2 -2 -2 -2 -2 -2 -2 -2 -2 -2 -2 -2 -2 -2 -3 -3 -3 -3 -2 -2 -2 -2 -2 -2 -2 -2 -1 -1 -1 -1 -0 -0 0 0 1 1 1 1 1
-3 -3 -3 -3 -3 -3 -3 -3 -3 -3 -3 -3 -3 -3 -3 -3 -3 -3 -3 -3 -3 -3 -3 -3 -3 -3 -3 -3 -2 -3 -2 -2 -2 -1 -1 -1 -1 -0 -0 -0 0 0 0
-4 -4 -4 -4 -3 -3 -4 -4 -4 -4 -4 -4 -4 -4 -4 -4 -4 -4 -4 -4 -4 -4 -4 -4 -4 -3 -3 -3 -3 -3 -3 -3 -2 -2 -2 -2 -1 -1 -1 -1 -1 -0 -0
-5 -5 -4 -4 -4 -4 -4 -5 -5 -5 -5 -5 -5 -5 -5 -5 -5 -5 -5 -4 -4 -4 -4 -4 -4 -4 -4 -4 -4 -3 -3 -3 -3 -3 -3 -3 -2 -2 -2 -1 -1 -1 -1
-5 -5 -5 -5 -5 -5 -5 -5 -5 -5 -5 -5 -5 -5 -5 -5 -5 -5 -5 -5 -5 -5 -5 -5 -5 -5 -4 -4 -4 -4 -4 -4 -4 -3 -3 -4 -3 -3 -2 -2 -2 -2 -2
-6 -6 -6 -6 -6 -6 -6 -6 -6 -6 -6 -6 -6 -6 -6 -6 -6 -6 -6 -6 -5 -5 -5 -5 -5 -5 -5 -5 -5 -5 -5 -5 -5 -5 -4 -4 -4 -4 -4 -3 -3 -2 -2
Wind_Speed
3 3 3 3 4 4 3 4 3 3 4 4 4 3 3 2 3 4 5 5 4 4 3 4 3 3 3 3 4 5 5 4 3 4 4 5 5 5 5 5 5 4 5
3 3 3 3 4 4 3 3 3 2 2 3 3 4 3 3 3 4 4 4 4 3 3 3 2 2 2 2 3 3 4 4 4 4 4 3 3 3 3 4 4 4 3
2 2 2 3 3 4 4 3 3 3 2 2 3 4 3 3 2 2 3 3 2 3 2 2 2 2 2 2 2 2 2 2 3 2 2 2 2 2 2 2 2 2 3
2 2 2 2 3 3 3 2 1 2 2 1 2 2 3 2 2 1 1 2 2 2 1 1 1 1 1 1 1 1 0 1 1 1 1 1 1 1 1 1 1 0 1
1 1 1 1 2 2 3 2 1 1 1 2 2 2 2 2 2 1 1 2 2 2 2 2 2 2 2 1 1 1 1 1 1 0 1 1 1 1 1 1 2 1 1
0 1 1 1 1 1 2 1 1 2 1 2 2 2 2 2 2 2 1 2 2 2 3 3 3 3 3 3 2 2 2 2 2 2 2 2 3 3 3 3 3 3 3
0 1 1 1 1 0 1 1 1 1 2 2 1 2 2 2 2 2 1 1 1 2 2 3 4 4 4 5 4 4 4 4 3 3 3 4 4 4 4 4 4 4 4
1 1 0 1 1 1 1 1 1 0 1 1 0 1 1 2 2 2 1 2 2 2 2 3 3 4 4 4 5 5 5 5 5 5 5 5 6 6 5 6 6 6 6
1 1 1 0 1 1 1 1 1 1 1 2 1 1 1 2 2 2 2 2 2 2 2 3 3 4 5 5 5 6 6 6 6 6 7 7 7 8 8 7 7 7 7
1 1 1 1 1 1 2 2 1 1 1 2 2 2 2 1 1 2 2 2 3 3 3 3 3 5 5 6 6 7 7 7 7 8 8 9 9 10 10 10 9 9 9
1 1 2 1 1 1 2 2 2 2 2 2 2 2 3 2 2 2 3 4 3 3 3 3 3 4 6 6 6 7 8 8 8 9 10 10 11 11 12 12 11 11 11
1 1 2 2 2 2 3 3 3 3 3 3 3 2 2 2 3 3 3 4 4 4 4 4 4 5 6 6 7 7 9 9 10 11 12 12 12 12 13 13 12 12 12
1 2 2 2 3 3 3 3 3 4 4 4 4 4 3 4 3 3 4 4 5 4 3 4 4 5 6 6 6 7 8 10 10 11 12 12 12 12 12 13 13 13 13
3 2 3 3 4 4 4 4 3 4 4 5 5 4 4 4 3 3 4 3 5 5 5 5 3 5 5 5 6 6 7 10 11 11 12 13 13 13 13 14 14 14 13
2 2 3 4 4 5 5 4 4 5 4 5 5 5 4 4 4 4 4 4 5 5 6 4 3 3 4 5 6 7 8 11 12 13 13 13 13 14 14 14 15 15 15
2 3 3 4 4 5 5 4 4 5 5 5 4 5 5 4 4 4 4 4 5 6 7 5 4 3 4 6 9 9 10 12 13 13 14 14 14 14 15 15 15 15 15
2 3 4 4 4 5 5 5 6 6 6 6 6 6 6 5 4 4 4 4 5 5 8 8 5 4 5 5 7 8 9 10 11 13 14 15 15 15 15 16 15 16 15
3 3 3 4 5 5 5 5 6 6 7 7 7 7 7 6 6 5 4 5 6 6 7 9 6 5 6 5 6 6 7 9 9 12 14 14 15 15 15 15 16 16 15
3 3 3 4 5 5 5 5 6 6 6 7 7 7 7 6 6 5 5 5 5 6 5 7 8 5 5 5 5 6 6 6 8 10 12 13 14 15 15 16 16 16 16
3 3 4 5 5 5 5 5 5 5 5 6 6 6 6 7 7 6 6 6 5 5 5 6 7 6 5 5 5 5 5 5 6 8 10 11 12 13 15 15 15 16 16
3 3 3 4 4 4 4 4 5 5 5 5 5 5 6 8 8 7 7 6 6 6 6 6 7 6 6 4 5 5 6 5 6 6 5 6 7 8 10 13 14 15 16
3 2 3 3 4 4 6 7 5 5 5 5 6 6 6 7 8 10 11 11 10 8 8 7 7 8 8 6 5 6 6 6 6 3 4 7 5 6 7 9 12 14 15
3 3 3 4 4 5 7 7 7 5 4 5 5 5 6 6 6 5 7 10 10 12 12 10 10 10 9 8 7 8 8 8 8 5 5 8 6 7 7 10 13 14 14
3 3 4 4 4 5 7 7 7 5 5 5 5 5 6 5 6 6 6 7 7 8 9 8 8 9 9 8 8 8 8 8 7 6 6 8 7 7 7 7 12 13 13
3 3 4 4 4 5 7 7 7 4 4 5 5 5 6 6 8 9 7 7 7 7 8 10 11 11 13 14 12 7 7 8 9 7 5 6 6 6 6 6 8 11 12
3 4 5 4 4 5 7 7 7 3 4 4 5 5 7 8 10 10 7 6 7 7 6 7 8 9 9 10 12 8 7 8 8 6 4 5 6 4 5 5 4 5 8
Wind_Direction
30 25 23 21 13 10 9 3 8 23 18 13 11 15 23 41 74 83 82 86 96 97 110 103 98 95 87 82 78 75 72 65 80 81 82 78 74 69 62 60 62 76 82
31 22 16 15 15 7 358 2 1 20 20 14 5 3 4 17 60 91 100 86 88 97 109 115 104 101 98 94 85 79 75 68 74 80 75 72 67 65 64 65 62 67 80
34 23 14 13 10 359 355 5 8 19 23 13 356 355 3 14 33 70 97 105 105 104 107 123 113 104 100 105 94 87 73 74 67 75 78 67 62 63 57 56 62 76 83
32 26 20 11 359 3 0 355 21 2 359 357 342 330 343 353 347 8 107 116 125 136 163 174 160 129 111 121 120 148 115 70 61 45 98 107 78 61 48 12 340 171 136
40 40 23 8 360 9 352 342 1 1 345 332 312 307 311 310 305 288 163 138 143 162 179 192 200 200 187 198 216 224 235 239 245 294 269 238 250 266 276 299 286 260 208
70 59 20 2 2 4 345 339 345 345 332 300 304 310 291 271 268 242 215 172 183 197 199 199 206 217 214 219 236 241 240 235 241 248 272 262 258 260 261 268 273 265 247
189 74 6 353 351 316 324 322 340 335 335 331 343 326 299 265 234 228 228 192 195 212 213 205 210 211 218 225 232 238 243 243 248 257 268 262 254 262 264 259 262 266 268
251 217 48 346 328 299 306 304 302 294 298 320 4 337 315 312 307 266 231 216 221 211 221 229 220 214 214 218 225 230 236 244 252 259 264 268 258 259 264 262 260 264 268
239 239 232 248 308 293 261 265 257 256 257 279 262 162 176 239 307 272 243 224 224 229 241 238 226 225 227 218 218 225 229 239 252 258 262 268 263 259 260 262 261 263 267
261 235 239 237 250 271 270 260 260 260 236 253 277 263 241 199 202 290 291 264 253 243 236 251 242 237 238 229 222 223 228 237 250 259 263 265 268 262 260 260 262 262 265
228 241 236 238 241 256 264 262 255 257 241 239 253 274 270 271 229 222 264 279 282 262 251 253 248 245 242 236 227 224 228 236 249 259 262 265 267 268 261 262 264 264 266
213 218 241 234 243 253 251 247 240 246 246 245 250 254 250 238 232 230 245 264 272 269 261 248 246 241 243 237 232 238 237 239 250 257 260 264 266 272 268 265 267 267 267
249 228 236 239 243 248 252 252 243 243 247 246 245 248 253 258 255 251 250 264 273 282 264 250 239 235 242 236 234 236 246 247 250 255 260 264 268 269 272 265 265 267 268
241 232 233 244 246 241 245 247 251 244 246 244 246 248 253 258 259 247 237 250 272 275 261 253 255 237 239 244 247 245 254 261 258 257 262 266 268 268 269 267 263 265 267
249 235 233 243 247 243 240 237 244 246 245 245 243 245 246 248 253 251 239 223 231 260 265 258 250 252 260 263 262 259 261 264 265 261 261 264 266 267 266 269 263 262 264
252 248 245 241 247 248 243 239 246 247 243 248 244 243 247 246 253 252 244 237 232 239 259 259 264 269 273 273 268 269 265 265 265 266 263 263 265 266 267 267 266 261 261
255 251 255 254 252 250 244 239 242 241 241 247 249 243 247 246 249 255 250 244 242 235 254 269 270 273 271 273 276 272 269 264 262 264 265 262 264 266 266 266 268 262 259
262 261 262 260 258 256 249 241 243 244 240 242 245 244 246 246 246 253 248 247 246 241 246 263 270 275 270 266 270 266 274 271 266 265 265 265 265 265 264 266 266 263 257
262 267 259 259 259 256 253 250 245 245 243 244 245 245 244 242 244 253 250 249 251 254 249 256 268 269 272 268 273 273 275 273 273 268 267 268 266 267 267 267 265 265 259
269 272 267 263 259 255 254 255 253 252 249 250 249 249 249 241 241 247 249 247 251 255 255 256 263 263 266 268 267 264 274 265 270 278 271 269 271 271 270 270 268 267 261
281 280 280 282 274 261 253 251 247 250 251 253 254 253 255 252 251 254 252 244 243 248 251 255 259 265 263 265 262 265 268 273 271 267 264 268 274 272 270 268 266 266 261
303 300 287 281 275 272 276 272 265 252 253 254 259 262 263 260 263 267 267 262 253 247 248 252 258 259 261 263 266 270 271 278 276 258 272 278 269 266 268 264 264 265 268
313 305 292 281 274 274 276 277 276 269 256 256 259 261 266 267 268 260 270 273 269 265 259 254 255 258 260 255 256 260 260 265 272 271 283 279 273 269 272 273 271 268 268
305 300 294 286 281 275 275 276 279 274 263 257 255 254 256 264 266 264 262 265 263 265 264 260 253 259 264 263 252 255 262 269 272 268 263 272 272 270 278 277 273 268 269
307 300 294 287 282 281 276 276 280 271 265 264 261 260 259 258 269 271 263 262 268 271 277 273 269 269 271 273 270 264 259 262 272 272 250 255 269 280 278 271 270 269 269
296 296 294 291 284 280 280 281 281 269 264 266 267 268 269 268 270 273 262 257 263 268 274 280 277 275 273 275 275 260 252 255 268 272 247 244 265 279 280 266 258 268 272
Height
1525 1526 1526 1528 1528 1529 1530 1531 1532 1532 1533 1534 1535 1536 1537 1538 1538 1539 1539 1540 1541 1542 1543 1543 1544 1544 1545 1546 1546 1546 1547 1547 1548 1548 1549 1549 1550 1550 1550 1550 1551 1551 1552
1523 1524 1524 1525 1526 1527 1528 1529 1530 1530 1531 1532 1533 1534 1534 1536 1536 1537 1538 1538 1539 1540 1541 1542 1542 1543 1543 1544 1544 1545 1545 1546 1546 1547 1548 1548 1548 1549 1549 1549 1550 1550 1551
1520 1521 1522 1523 1524 1525 1526 1527 1527 1528 1529 1529 1530 1531 1532 1533 1534 1535 1536 1536 1537 1538 1539 1540 1540 1541 1541 1542 1542 1543 1543 1544 1544 1545 1546 1546 1547 1547 1548 1548 1548 1549 1549
1518 1519 1519 1521 1522 1523 1523 1524 1524 1525 1526 1527 1528 1529 1529 1530 1531 1532 1533 1534 1535 1536 1536 1537 1538 1539 1539 1540 1540 1541 1541 1542 1542 1543 1544 1544 1545 1545 1546 1547 1547 1547 1548
1515 1516 1517 1518 1519 1520 1521 1522 1522 1523 1523 1524 1525 1526 1527 1527 1528 1530 1530 1531 1532 1533 1534 1535 1535 1536 1537 1537 1538 1538 1539 1540 1540 1541 1541 1542 1542 1543 1544 1544 1545 1545 1546
1513 1514 1514 1515 1516 1517 1518 1519 1519 1520 1521 1522 1522 1523 1524 1524 1525 1527 1528 1529 1529 1530 1531 1532 1532 1533 1534 1534 1535 1536 1536 1537 1538 1538 1539 1539 1540 1541 1541 1542 1542 1543 1543
1510 1511 1511 1512 1513 1514 1515 1516 1517 1518 1518 1519 1520 1520 1521 1522 1522 1523 1525 1526 1526 1527 1528 1529 1529 1530 1530 1531 1532 1532 1533 1534 1534 1535 1536 1536 1537 1538 1538 1539 1539 1540 1540
1507 1507 1508 1509 1510 1511 1512 1513 1514 1514 1516 1517 1518 1518 1518 1519 1519 1520 1521 1522 1523 1524 1525 1525 1526 1527 1527 1527 1528 1529 1529 1530 1530 1531 1532 1533 1534 1534 1535 1535 1536 1537 1537
1503 1504 1505 1506 1507 1508 1509 1510 1510 1511 1512 1513 1515 1517 1517 1516 1516 1516 1517 1519 1519 1520 1521 1522 1522 1523 1523 1524 1524 1525 1525 1526 1527 1527 1528 1529 1530 1530 1531 1532 1532 1533 1534
1500 1501 1502 1503 1504 1504 1505 1506 1507 1508 1509 1510 1511 1513 1514 1514 1515 1513 1514 1515 1515 1516 1517 1518 1518 1519 1520 1520 1520 1521 1521 1522 1523 1523 1524 1525 1525 1526 1527 1527 1528 1529 1529
1496 1497 1498 1499 1500 1501 1501 1502 1503 1504 1505 1506 1507 1508 1510 1511 1511 1511 1510 1510 1511 1512 1513 1513 1514 1515 1515 1516 1516 1516 1517 1518 1518 1519 1519 1520 1520 1521 1522 1523 1523 1524 1524
1491 1493 1494 1495 1496 1496 1497 1498 1499 1500 1501 1502 1503 1504 1505 1506 1506 1508 1507 1506 1506 1506 1507 1508 1509 1510 1510 1511 1511 1512 1512 1513 1513 1514 1514 1515 1515 1516 1516 1517 1518 1518 1519
1487 1488 1489 1490 1491 1492 1492 1493 1494 1495 1496 1497 1498 1499 1500 1501 1502 1503 1503 1503 1502 1501 1501 1502 1503 1504 1505 1506 1506 1506 1507 1507 1508 1508 1509 1509 1510 1510 1510 1511 1512 1512 1513
1483 1484 1485 1485 1486 1487 1488 1489 1489 1490 1491 1492 1493 1494 1495 1496 1497 1498 1498 1499 1497 1496 1496 1496 1497 1498 1499 1500 1500 1501 1501 1501 1502 1502 1503 1503 1504 1504 1504 1505 1505 1506 1507
1479 1479 1480 1480 1481 1482 1483 1483 1484 1485 1486 1486 1487 1488 1489 1490 1491 1493 1493 1494 1494 1492 1490 1490 1491 1492 1494 1494 1494 1494 1494 1495 1495 1496 1496 1497 1497 1498 1498 1498 1499 1500 1500
1474 1474 1475 1475 1476 1476 1477 1478 1478 1479 1480 1480 1481 1482 1483 1484 1485 1486 1487 1488 1488 1488 1485 1484 1486 1487 1488 1488 1488 1488 1488 1488 1488 1489 1489 1490 1490 1491 1491 1491 1492 1493 1493
1469 1469 1469 1470 1470 1471 1472 1472 1473 1473 1474 1475 1475 1476 1477 1478 1479 1480 1480 1481 1482 1482 1480 1478 1480 1481 1481 1481 1481 1482 1481 1481 1481 1482 1482 1483 1483 1483 1484 1484 1484 1485 1486
1464 1464 1464 1465 1465 1466 1466 1467 1467 1467 1468 1468 1469 1470 1470 1472 1472 1473 1474 1474 1475 1475 1474 1472 1473 1474 1474 1474 1474 1475 1474 1474 1474 1474 1475 1475 1475 1476 1476 1476 1477 1477 1478
1458 1459 1459 1459 1459 1460 1460 1461 1461 1462 1462 1462 1463 1463 1464 1465 1465 1466 1467 1467 1468 1468 1468 1467 1466 1467 1467 1468 1467 1467 1467 1467 1467 1467 1468 1468 1468 1468 1468 1469 1469 1469 1470
1453 1453 1453 1453 1453 1454 1454 1454 1455 1455 1456 1456 1457 1457 1457 1458 1459 1460 1460 1461 1461 1461 1461 1461 1460 1459 1460 1461 1461 1460 1459 1460 1460 1460 1460 1460 1460 1460 1461 1461 1461 1461 1461
1448 1448 1448 1448 1448 1448 1448 1449 1449 1449 1449 1450 1450 1450 1451 1452 1452 1454 1454 1454 1454 1454 1454 1454 1453 1453 1453 1454 1454 1454 1453 1452 1452 1453 1452 1452 1452 1452 1452 1452 1453 1453 1453
1443 1443 1442 1442 1442 1442 1443 1443 1444 1443 1443 1443 1443 1444 1445 1445 1446 1447 1448 1448 1448 1448 1447 1447 1446 1446 1445 1446 1447 1447 1447 1446 1443 1445 1445 1444 1445 1443 1444 1444 1444 1445 1445
1439 1438 1438 1437 1437 1437 1437 1438 1438 1437 1438 1437 1437 1438 1438 1439 1439 1440 1440 1441 1441 1441 1441 1441 1439 1439 1439 1439 1440 1440 1440 1439 1437 1438 1438 1435 1436 1435 1436 1436 1437 1437 1437
1434 1434 1433 1433 1432 1432 1432 1433 1433 1433 1432 1432 1432 1432 1432 1432 1433 1434 1434 1433 1433 1433 1433 1433 1433 1432 1433 1433 1434 1434 1433 1432 1430 1431 1432 1429 1427 1427 1427 1428 1428 1429 1428
1430 1430 1429 1428 1427 1427 1428 1428 1428 1427 1426 1426 1426 1427 1427 1426 1427 1428 1428 1426 1425 1426 1426 1426 1426 1426 1426 1427 1427 1427 1426 1425 1422 1422 1424 1423 1420 1420 1419 1419 1420 1420 1420
1427 1426 1425 1424 1424 1423 1423 1423 1423 1422 1421 1421 1421 1421 1421 1421 1421 1421 1421 1419 1418 1418 1419 1419 1419 1419 1419 1419 1419 1420 1419 1418 1415 1414 1415 1416 1414 1415 1412 1411 1412 1413 1413